,,Stat5,,Stat1,,Stat2,,Stat3,,Stat4,,Wind1,,Wind1,
time,status,PA1M_AVG,status,PR1M_SUM,status,RH1M_AVG,status,SR1M_AVG,status,TA1M_AVG,status,W1dAve1m,status,W1sAve1m,
2002-05-25, 00:00:00,VALID,920.361,VALID,0,VALID,96.7462,VALID,-0.0169808,VALID,20.4469,VALID,356,VALID,0.268092,
2002-05-25, 00:01:00,VALID,920.348,VALID,0,VALID,96.7729,VALID,-0.0849042,VALID,20.4641,VALID,355,VALID,0.32538,
2002-05-25, 00:02:00,VALID,920.344,VALID,0,VALID,96.7767,VALID,-0.0509425,VALID,20.4507,VALID,345,VALID,0.363281,
2002-05-25, 00:03:00,VALID,920.35,VALID,0,VALID,96.778,VALID,-0.0339617,VALID,20.4639,VALID,328,VALID,0.125195,
2002-05-25, 00:04:00,VALID,920.342,VALID,0,VALID,96.82,VALID,-0.0339617,VALID,20.4735,VALID,314,VALID,0.201941,
2002-05-25, 00:05:00,VALID,920.326,VALID,0,VALID,96.8085,VALID,-0.0679233,VALID,20.486,VALID,290,VALID,0.0551339,
2002-05-25, 00:06:00,VALID,920.324,VALID,0,VALID,96.6598,VALID,-0.0169808,VALID,20.4964,VALID,273,VALID,0.326758,
2002-05-25, 00:07:00,VALID,920.324,VALID,0,VALID,96.6,VALID,-0.0509425,VALID,20.4924,VALID,264,VALID,0.187946,
2002-05-25, 00:08:00,VALID,920.314,VALID,0,VALID,96.6381,VALID,-0.0509425,VALID,20.5037,VALID,264,VALID,0,
2002-05-25, 00:09:00,VALID,920.313,VALID,0,VALID,96.6598,VALID,-0.0169808,VALID,20.4919,VALID,264,VALID,0,
2002-05-25, 00:10:00,VALID,920.295,VALID,0,VALID,96.6954,VALID,0.0339617,VALID,20.4779,VALID,278,VALID,0,
2002-05-25, 00:11:00,VALID,920.299,VALID,0,VALID,96.6928,VALID,0.101885,VALID,20.4849,VALID,327,VALID,0,
2002-05-25, 00:12:00,VALID,920.295,VALID,0,VALID,96.703,VALID,0.0849042,VALID,20.4653,VALID,327,VALID,0,
2002-05-25, 00:13:00,VALID,920.283,VALID,0,VALID,96.7182,VALID,0.0679233,VALID,20.4626,VALID,327,VALID,0,
2002-05-25, 00:14:00,VALID,920.275,VALID,0,VALID,96.7615,VALID,0.0339617,VALID,20.4693,VALID,327,VALID,0,
2002-05-25, 00:15:00,VALID,920.26,VALID,0,VALID,96.7844,VALID,0.101885,VALID,20.4626,VALID,327,VALID,0,
2002-05-25, 00:16:00,VALID,920.251,VALID,0,VALID,96.7666,VALID,0.0679233,VALID,20.4459,VALID,327,VALID,0,
2002-05-25, 00:17:00,VALID,920.231,VALID,0,VALID,96.7271,VALID,0.0509425,VALID,20.437,VALID,327,VALID,0,
2002-05-25, 00:18:00,VALID,920.223,VALID,0,VALID,96.6865,VALID,0.0509425,VALID,20.4036,VALID,345,VALID,0,
2002-05-25, 00:19:00,VALID,920.209,VALID,0,VALID,96.6826,VALID,0.0679233,VALID,20.3848,VALID,5,VALID,0,
2002-05-25, 00:20:00,VALID,920.218,VALID,0,VALID,96.5326,VALID,0.0339617,VALID,20.3368,VALID,5,VALID,0,
2002-05-25, 00:21:00,VALID,920.212,VALID,0,VALID,96.5059,VALID,0.0339617,VALID,20.2911,VALID,5,VALID,0,
2002-05-25, 00:22:00,VALID,920.204,VALID,0,VALID,96.5186,VALID,0.0849042,VALID,20.2493,VALID,4,VALID,0,
2002-05-25, 00:23:00,VALID,920.199,VALID,0,VALID,96.6038,VALID,0.0679233,VALID,20.2138,VALID,5,VALID,0,
2002-05-25, 00:24:00,VALID,920.19,VALID,0,VALID,96.8073,VALID,0.0509425,VALID,20.2081,VALID,5,VALID,0,
2002-05-25, 00:25:00,VALID,920.193,VALID,0,VALID,96.9204,VALID,-0.0509425,VALID,20.1925,VALID,4,VALID,0,
2002-05-25, 00:26:00,VALID,920.172,VALID,0,VALID,96.9802,VALID,-0.0509425,VALID,20.1801,VALID,5,VALID,0,
2002-05-25, 00:27:00,VALID,920.163,VALID,0,VALID,97.0667,VALID,-0.0509425,VALID,20.1803,VALID,4,VALID,0,
2002-05-25, 00:28:00,VALID,920.138,VALID,0,VALID,97.1023,VALID,-0.0679233,VALID,20.1701,VALID,4,VALID,0,
2002-05-25, 00:29:00,VALID,920.125,VALID,0,VALID,97.1112,VALID,-0.0339617,VALID,20.1808,VALID,4,VALID,0,
2002-05-25, 00:30:00,VALID,920.103,VALID,0,VALID,97.1315,VALID,-0.0679233,VALID,20.1577,VALID,4,VALID,0,
2002-05-25, 00:31:00,VALID,920.078,VALID,0,VALID,97.1277,VALID,-0.0849042,VALID,20.1478,VALID,4,VALID,0,
2002-05-25, 00:32:00,VALID,920.074,VALID,0,VALID,97.0934,VALID,-0.0509425,VALID,20.1381,VALID,4,VALID,0,
2002-05-25, 00:33:00,VALID,920.079,VALID,0,VALID,97.0794,VALID,-0.0509425,VALID,20.1154,VALID,4,VALID,0,
2002-05-25, 00:34:00,VALID,920.061,VALID,0,VALID,97.0196,VALID,0,VALID,20.099,VALID,4,VALID,0,
2002-05-25, 00:35:00,VALID,920.046,VALID,0,VALID,96.9777,VALID,-0.0169808,VALID,20.0705,VALID,4,VALID,0,
2002-05-25, 00:36:00,VALID,920.024,VALID,0,VALID,97.059,VALID,-0.0509425,VALID,20.0541,VALID,4,VALID,0,
2002-05-25, 00:37:00,VALID,920.001,VALID,0,VALID,97.1798,VALID,-0.0339617,VALID,20.0444,VALID,4,VALID,0,
2002-05-25, 00:38:00,VALID,919.97,VALID,0,VALID,97.2599,VALID,-0.0339617,VALID,20.0417,VALID,4,VALID,0,
2002-05-25, 00:39:00,VALID,919.947,VALID,0,VALID,97.2561,VALID,-0.0169808,VALID,20.022,VALID,5,VALID,0,
2002-05-25, 00:40:00,VALID,919.92,VALID,0,VALID,97.2612,VALID,-0.0339617,VALID,20.0056,VALID,78,VALID,0.202178,
2002-05-25, 00:41:00,VALID,919.916,VALID,0,VALID,97.3528,VALID,-0.0339617,VALID,19.9825,VALID,138,VALID,0.637054,
2002-05-25, 00:42:00,VALID,919.907,VALID,0,VALID,97.4837,VALID,-0.0169808,VALID,19.9957,VALID,138,VALID,0.547656,
2002-05-25, 00:43:00,VALID,919.932,VALID,0,VALID,97.5486,VALID,-0.0169808,VALID,19.9991,VALID,137,VALID,0.509152,
2002-05-25, 00:44:00,VALID,919.956,VALID,0,VALID,97.5575,VALID,0,VALID,20.0116,VALID,134,VALID,0.246324,
2002-05-25, 00:45:00,VALID,919.98,VALID,0,VALID,97.5372,VALID,0,VALID,20.019,VALID,118,VALID,0.435742,
2002-05-25, 00:46:00,VALID,919.998,VALID,0,VALID,97.4698,VALID,0,VALID,19.9989,VALID,108,VALID,0.281723,
2002-05-25, 00:47:00,VALID,920.01,VALID,0,VALID,97.1773,VALID,0,VALID,19.944,VALID,99,VALID,0.322098,
2002-05-25, 00:48:00,VALID,920.016,VALID,0,VALID,97.0997,VALID,0,VALID,19.9052,VALID,92,VALID,0.376367,
2002-05-25, 00:49:00,VALID,920.011,VALID,0,VALID,97.2002,VALID,-0.0169808,VALID,19.8796,VALID,85,VALID,0.372545,
2002-05-25, 00:50:00,VALID,920.004,VALID,0,VALID,97.2879,VALID,-0.0169808,VALID,19.8766,VALID,82,VALID,0.265855,
2002-05-25, 00:51:00,VALID,919.993,VALID,0,VALID,97.2332,VALID,0,VALID,19.8371,VALID,81,VALID,0.297266,
2002-05-25, 00:52:00,VALID,919.975,VALID,0,VALID,97.1887,VALID,-0.0169808,VALID,19.8115,VALID,80,VALID,0.29214,
2002-05-25, 00:53:00,VALID,919.969,VALID,0,VALID,97.1544,VALID,-0.0169808,VALID,19.7792,VALID,77,VALID,0.256027,
2002-05-25, 00:54:00,VALID,919.961,VALID,0,VALID,97.2091,VALID,0.0339617,VALID,19.7596,VALID,77,VALID,0.229687,
2002-05-25, 00:55:00,VALID,919.942,VALID,0,VALID,97.293,VALID,0.0679233,VALID,19.7363,VALID,77,VALID,0.228125,
2002-05-25, 00:56:00,VALID,919.919,VALID,0,VALID,97.3718,VALID,-0.0169808,VALID,19.731,VALID,77,VALID,0.138327,
2002-05-25, 00:57:00,VALID,919.896,VALID,0,VALID,97.485,VALID,-0.0169808,VALID,19.7348,VALID,77,VALID,0,
2002-05-25, 00:58:00,VALID,919.859,VALID,0,VALID,97.6033,VALID,-0.0169808,VALID,19.731,VALID,77,VALID,0.00118371,
2002-05-25, 00:59:00,VALID,919.833,VALID,0,VALID,97.7304,VALID,0,VALID,19.7571,VALID,77,VALID,0,
2002-05-25, 01:00:00,VALID,919.809,VALID,0,VALID,97.7813,VALID,-0.0339617,VALID,19.77,VALID,79,VALID,0.262891,
2002-05-25, 01:01:00,VALID,919.799,VALID,0,VALID,97.8017,VALID,-0.0339617,VALID,19.7738,VALID,139,VALID,0.592857,
2002-05-25, 01:02:00,VALID,919.795,VALID,0,VALID,97.8347,VALID,-0.0169808,VALID,19.7802,VALID,143,VALID,0.659697,
2002-05-25, 01:03:00,VALID,919.786,VALID,0,VALID,97.8754,VALID,-0.0339617,VALID,19.7604,VALID,140,VALID,0.754883,
2002-05-25, 01:04:00,VALID,919.782,VALID,0,VALID,97.8932,VALID,-0.0339617,VALID,19.7676,VALID,127,VALID,0.598722,
2002-05-25, 01:05:00,VALID,919.76,VALID,0,VALID,97.897,VALID,-0.0169808,VALID,19.7507,VALID,122,VALID,0.68125,
2002-05-25, 01:06:00,VALID,919.735,VALID,0,VALID,97.9479,VALID,-0.0169808,VALID,19.7445,VALID,120,VALID,0.924414,
2002-05-25, 01:07:00,VALID,919.691,VALID,0,VALID,98.0814,VALID,-0.0169808,VALID,19.7507,VALID,120,VALID,0.907366,
2002-05-25, 01:08:00,VALID,919.632,VALID,0,VALID,98.1958,VALID,-0.0339617,VALID,19.7765,VALID,125,VALID,0.584329,
2002-05-25, 01:09:00,VALID,919.576,VALID,0,VALID,98.3014,VALID,-0.0169808,VALID,19.8061,VALID,138,VALID,0.825781,
2002-05-25, 01:10:00,VALID,919.517,VALID,0,VALID,98.4108,VALID,-0.0169808,VALID,19.8319,VALID,137,VALID,0.945786,
2002-05-25, 01:11:00,VALID,919.502,VALID,0,VALID,98.4642,VALID,-0.0339617,VALID,19.8513,VALID,134,VALID,0.862054,
2002-05-25, 01:12:00,VALID,919.488,VALID,0,VALID,98.5087,VALID,-0.0509425,VALID,19.8573,VALID,121,VALID,0.979883,
2002-05-25, 01:13:00,VALID,919.502,VALID,0,VALID,98.5532,VALID,-0.0339617,VALID,19.8739,VALID,115,VALID,0.905804,
2002-05-25, 01:14:00,VALID,919.526,VALID,0,VALID,98.618,VALID,-0.0339617,VALID,19.8806,VALID,113,VALID,1.0818,
2002-05-25, 01:15:00,VALID,919.556,VALID,0,VALID,98.6485,VALID,-0.0509425,VALID,19.867,VALID,112,VALID,0.999023,
2002-05-25, 01:16:00,VALID,919.59,VALID,0,VALID,98.688,VALID,-0.0679233,VALID,19.8739,VALID,105,VALID,1.17732,
2002-05-25, 01:17:00,VALID,919.612,VALID,0,VALID,98.7808,VALID,-0.0339617,VALID,19.8734,VALID,124,VALID,1.19196,
2002-05-25, 01:18:00,VALID,919.62,VALID,0,VALID,98.8316,VALID,-0.0679233,VALID,19.8868,VALID,118,VALID,0.8875,
2002-05-25, 01:19:00,VALID,919.614,VALID,0,VALID,98.866,VALID,-0.0339617,VALID,19.8925,VALID,121,VALID,1.04219,
2002-05-25, 01:20:00,VALID,919.603,VALID,0,VALID,98.899,VALID,0,VALID,19.9129,VALID,126,VALID,1.04228,
2002-05-25, 01:21:00,VALID,919.581,VALID,0,VALID,98.9219,VALID,-0.0169808,VALID,19.9254,VALID,112,VALID,0.872266,
2002-05-25, 01:22:00,VALID,919.571,VALID,0,VALID,98.9334,VALID,-0.0169808,VALID,19.9256,VALID,132,VALID,0.59517,
2002-05-25, 01:23:00,VALID,919.558,VALID,0,VALID,98.9677,VALID,-0.0679233,VALID,19.9323,VALID,131,VALID,0.621205,
2002-05-25, 01:24:00,VALID,919.549,VALID,0,VALID,98.9868,VALID,-0.0509425,VALID,19.9318,VALID,133,VALID,0.919922,
2002-05-25, 01:25:00,VALID,919.553,VALID,0,VALID,99.0173,VALID,-0.0509425,VALID,19.9519,VALID,135,VALID,0.803348,
2002-05-25, 01:26:00,VALID,919.558,VALID,0,VALID,99.0364,VALID,-0.0849042,VALID,19.9616,VALID,141,VALID,0.688419,
2002-05-25, 01:27:00,VALID,919.56,VALID,0,VALID,99.0504,VALID,-0.0169808,VALID,19.9574,VALID,120,VALID,0.692773,
2002-05-25, 01:28:00,VALID,919.574,VALID,0,VALID,99.0491,VALID,-0.0339617,VALID,19.9673,VALID,145,VALID,0.554688,
2002-05-25, 01:29:00,VALID,919.569,VALID,0,VALID,99.0618,VALID,-0.0339617,VALID,19.9644,VALID,115,VALID,0.699107,
2002-05-25, 01:30:00,VALID,919.569,VALID,0,VALID,99.058,VALID,-0.101885,VALID,19.9512,VALID,136,VALID,0.927734,
2002-05-25, 01:31:00,VALID,919.572,VALID,0,VALID,99.0656,VALID,-0.0509425,VALID,19.9413,VALID,121,VALID,0.462054,
2002-05-25, 01:32:00,VALID,919.571,VALID,0,VALID,99.0745,VALID,-0.0679233,VALID,19.9512,VALID,106,VALID,0.695542,
2002-05-25, 01:33:00,VALID,919.575,VALID,0,VALID,99.0745,VALID,-0.0679233,VALID,19.9383,VALID,107,VALID,0.924805,
2002-05-25, 01:34:00,VALID,919.573,VALID,0,VALID,99.0694,VALID,-0.0679233,VALID,19.9288,VALID,102,VALID,0.756629,
2002-05-25, 01:35:00,VALID,919.57,VALID,0,VALID,99.0783,VALID,-0.101885,VALID,19.9127,VALID,95,VALID,0.760938,
2002-05-25, 01:36:00,VALID,919.58,VALID,0,VALID,99.0911,VALID,-0.0339617,VALID,19.9221,VALID,100,VALID,0.762695,
2002-05-25, 01:37:00,VALID,919.582,VALID,0,VALID,99.0961,VALID,-0.0679233,VALID,19.9288,VALID,93,VALID,0.572098,
2002-05-25, 01:38:00,VALID,919.573,VALID,0,VALID,99.1228,VALID,-0.0509425,VALID,19.9288,VALID,104,VALID,0.731847,
2002-05-25, 01:39:00,VALID,919.566,VALID,0,VALID,99.1254,VALID,-0.0679233,VALID,19.9288,VALID,96,VALID,0.680273,
2002-05-25, 01:40:00,VALID,919.566,VALID,0,VALID,99.1254,VALID,-0.0679233,VALID,19.9224,VALID,114,VALID,0.520833,
2002-05-25, 01:41:00,VALID,919.569,VALID,0,VALID,99.1368,VALID,-0.0679233,VALID,19.9328,VALID,131,VALID,0.722991,
2002-05-25, 01:42:00,VALID,919.567,VALID,0,VALID,99.1356,VALID,-0.0679233,VALID,19.9259,VALID,127,VALID,0.651563,
2002-05-25, 01:43:00,VALID,919.571,VALID,0,VALID,99.1445,VALID,-0.0849042,VALID,19.942,VALID,122,VALID,0.56808,
2002-05-25, 01:44:00,VALID,919.569,VALID,0,VALID,99.1483,VALID,-0.101885,VALID,19.9355,VALID,126,VALID,0.788373,
2002-05-25, 01:45:00,VALID,919.554,VALID,0,VALID,99.1406,VALID,-0.0849042,VALID,19.9358,VALID,126,VALID,0.70625,
2002-05-25, 01:46:00,VALID,919.547,VALID,0,VALID,99.1483,VALID,-0.0679233,VALID,19.9358,VALID,124,VALID,0.949811,
2002-05-25, 01:47:00,VALID,919.516,VALID,0,VALID,99.1496,VALID,-0.0509425,VALID,19.9318,VALID,111,VALID,0.57433,
2002-05-25, 01:48:00,VALID,919.479,VALID,0,VALID,99.1546,VALID,-0.0509425,VALID,19.9514,VALID,121,VALID,0.863477,
2002-05-25, 01:49:00,VALID,919.433,VALID,0,VALID,99.1585,VALID,-0.0509425,VALID,19.9447,VALID,139,VALID,0.709375,
2002-05-25, 01:50:00,VALID,919.38,VALID,0,VALID,99.1572,VALID,-0.0339617,VALID,19.9579,VALID,138,VALID,0.909697,
2002-05-25, 01:51:00,VALID,919.333,VALID,0,VALID,99.147,VALID,-0.0169808,VALID,19.9646,VALID,137,VALID,1.14453,
2002-05-25, 01:52:00,VALID,919.271,VALID,0,VALID,99.147,VALID,-0.0509425,VALID,19.9579,VALID,147,VALID,1.35582,
2002-05-25, 01:53:00,VALID,919.233,VALID,0,VALID,99.1445,VALID,-0.0169808,VALID,19.9445,VALID,152,VALID,1.06496,
2002-05-25, 01:54:00,VALID,919.175,VALID,0,VALID,99.1496,VALID,-0.0509425,VALID,19.9477,VALID,155,VALID,0.912891,
2002-05-25, 01:55:00,VALID,919.132,VALID,0,VALID,99.1406,VALID,0,VALID,19.9579,VALID,144,VALID,0.873884,
2002-05-25, 01:56:00,VALID,919.108,VALID,0,VALID,99.1228,VALID,-0.0849042,VALID,19.9415,VALID,150,VALID,0.951746,
2002-05-25, 01:57:00,VALID,919.098,VALID,0,VALID,99.133,VALID,-0.0339617,VALID,19.9447,VALID,145,VALID,1.00547,
2002-05-25, 01:58:00,VALID,919.119,VALID,0,VALID,99.1241,VALID,-0.0679233,VALID,19.9313,VALID,140,VALID,0.617424,
2002-05-25, 01:59:00,VALID,919.14,VALID,0,VALID,99.1228,VALID,-0.0509425,VALID,19.9251,VALID,153,VALID,0.262723,
2002-05-25, 02:00:00,VALID,919.153,VALID,0,VALID,99.1101,VALID,-0.0339617,VALID,19.9154,VALID,97,VALID,0.428711,
2002-05-25, 02:01:00,VALID,919.178,VALID,0,VALID,99.1063,VALID,-0.0509425,VALID,19.906,VALID,80,VALID,0.579687,
2002-05-25, 02:02:00,VALID,919.197,VALID,0,VALID,99.0987,VALID,-0.0509425,VALID,19.8963,VALID,88,VALID,0.694853,
2002-05-25, 02:03:00,VALID,919.223,VALID,0,VALID,99.1076,VALID,-0.0849042,VALID,19.8898,VALID,79,VALID,0.704883,
2002-05-25, 02:04:00,VALID,919.228,VALID,0,VALID,99.1089,VALID,-0.0339617,VALID,19.8861,VALID,75,VALID,0.43892,
2002-05-25, 02:05:00,VALID,919.235,VALID,0,VALID,99.1089,VALID,-0.0339617,VALID,19.8893,VALID,46,VALID,0.37433,
2002-05-25, 02:06:00,VALID,919.235,VALID,0,VALID,99.1101,VALID,-0.0849042,VALID,19.896,VALID,46,VALID,0.329297,
2002-05-25, 02:07:00,VALID,919.246,VALID,0,VALID,99.1089,VALID,-0.0679233,VALID,19.9097,VALID,44,VALID,0.385045,
2002-05-25, 02:08:00,VALID,919.251,VALID,0,VALID,99.1,VALID,-0.0849042,VALID,19.8998,VALID,21,VALID,0.723575,
2002-05-25, 02:09:00,VALID,919.255,VALID,0,VALID,99.0834,VALID,-0.0849042,VALID,19.8963,VALID,18,VALID,0.987695,
2002-05-25, 02:10:00,VALID,919.264,VALID,0,VALID,99.0555,VALID,-0.0339617,VALID,19.8898,VALID,10,VALID,0.620265,
2002-05-25, 02:11:00,VALID,919.272,VALID,0,VALID,99.0453,VALID,-0.0679233,VALID,19.8863,VALID,9,VALID,0.239955,
2002-05-25, 02:12:00,VALID,919.266,VALID,0,VALID,99.0211,VALID,-0.0509425,VALID,19.8702,VALID,8,VALID,0.00234375,
2002-05-25, 02:13:00,VALID,919.245,VALID,0,VALID,99.0071,VALID,-0.0169808,VALID,19.8729,VALID,276,VALID,0.240402,
2002-05-25, 02:14:00,VALID,919.21,VALID,0,VALID,98.9919,VALID,-0.0339617,VALID,19.8834,VALID,225,VALID,0.226103,
2002-05-25, 02:15:00,VALID,919.195,VALID,0,VALID,98.9715,VALID,-0.0679233,VALID,19.8901,VALID,204,VALID,0.179102,
2002-05-25, 02:16:00,VALID,919.175,VALID,0,VALID,98.9537,VALID,-0.0679233,VALID,19.8834,VALID,177,VALID,0.344934,
2002-05-25, 02:17:00,VALID,919.17,VALID,0,VALID,98.9346,VALID,-0.0339617,VALID,19.8702,VALID,160,VALID,0.226339,
2002-05-25, 02:18:00,VALID,919.156,VALID,0,VALID,98.9079,VALID,-0.0509425,VALID,19.8734,VALID,160,VALID,0.00390625,
2002-05-25, 02:19:00,VALID,919.162,VALID,0,VALID,98.8952,VALID,-0.0679233,VALID,19.8863,VALID,78,VALID,0.371875,
2002-05-25, 02:20:00,VALID,919.137,VALID,0,VALID,98.8723,VALID,-0.0679233,VALID,19.8804,VALID,25,VALID,0.733686,
2002-05-25, 02:21:00,VALID,919.132,VALID,0,VALID,98.8342,VALID,-0.0679233,VALID,19.8771,VALID,24,VALID,0.314063,
2002-05-25, 02:22:00,VALID,919.13,VALID,0,VALID,98.7795,VALID,-0.0679233,VALID,19.8513,VALID,24,VALID,0.0310133,
2002-05-25, 02:23:00,VALID,919.115,VALID,0,VALID,98.7579,VALID,-0.0509425,VALID,19.8349,VALID,24,VALID,0.00691964,
2002-05-25, 02:24:00,VALID,919.105,VALID,0,VALID,98.7477,VALID,0,VALID,19.8414,VALID,24,VALID,0.376367,
2002-05-25, 02:25:00,VALID,919.081,VALID,0,VALID,98.721,VALID,0.0339617,VALID,19.8337,VALID,24,VALID,0.658705,
2002-05-25, 02:26:00,VALID,919.066,VALID,0,VALID,98.6562,VALID,0,VALID,19.8207,VALID,25,VALID,0.902803,
2002-05-25, 02:27:00,VALID,919.061,VALID,0,VALID,98.5862,VALID,0.0339617,VALID,19.7887,VALID,27,VALID,0.683008,
2002-05-25, 02:28:00,VALID,919.051,VALID,0,VALID,98.5888,VALID,0.0339617,VALID,19.7887,VALID,26,VALID,0.4884,
2002-05-25, 02:29:00,VALID,919.066,VALID,0,VALID,98.5672,VALID,0.0339617,VALID,19.7725,VALID,18,VALID,0.22433,
2002-05-25, 02:30:00,VALID,919.062,VALID,0,VALID,98.5939,VALID,0.0509425,VALID,19.7887,VALID,14,VALID,0.359375,
2002-05-25, 02:31:00,VALID,919.062,VALID,0,VALID,98.5913,VALID,0.0339617,VALID,19.7949,VALID,30,VALID,0.545982,
2002-05-25, 02:32:00,VALID,919.071,VALID,0,VALID,98.5405,VALID,0.0339617,VALID,19.7854,VALID,35,VALID,0.539522,
2002-05-25, 02:33:00,VALID,919.065,VALID,0,VALID,98.5392,VALID,0,VALID,19.7852,VALID,35,VALID,0.595508,
2002-05-25, 02:34:00,VALID,919.064,VALID,0,VALID,98.515,VALID,0.0169808,VALID,19.7792,VALID,35,VALID,0.606771,
2002-05-25, 02:35:00,VALID,919.055,VALID,0,VALID,98.4845,VALID,0.0339617,VALID,19.7633,VALID,33,VALID,0.835045,
2002-05-25, 02:36:00,VALID,919.044,VALID,0,VALID,98.501,VALID,0,VALID,19.7464,VALID,35,VALID,0.760352,
2002-05-25, 02:37:00,VALID,919.034,VALID,0,VALID,98.5315,VALID,0,VALID,19.7601,VALID,50,VALID,0.716071,
2002-05-25, 02:38:00,VALID,919.043,VALID,0,VALID,98.5354,VALID,0.0339617,VALID,19.7435,VALID,53,VALID,0.753217,
2002-05-25, 02:39:00,VALID,919.054,VALID,0,VALID,98.543,VALID,-0.0169808,VALID,19.7375,VALID,51,VALID,0.582617,
2002-05-25, 02:40:00,VALID,919.062,VALID,0,VALID,98.5455,VALID,-0.0509425,VALID,19.7345,VALID,54,VALID,0.390862,
2002-05-25, 02:41:00,VALID,919.071,VALID,0,VALID,98.5214,VALID,-0.0509425,VALID,19.7348,VALID,64,VALID,0.416964,
2002-05-25, 02:42:00,VALID,919.067,VALID,0,VALID,98.529,VALID,-0.0509425,VALID,19.7283,VALID,71,VALID,0.5125,
2002-05-25, 02:43:00,VALID,919.086,VALID,0,VALID,98.5328,VALID,-0.0679233,VALID,19.7318,VALID,74,VALID,0.501339,
2002-05-25, 02:44:00,VALID,919.085,VALID,0,VALID,98.5481,VALID,-0.0509425,VALID,19.7385,VALID,76,VALID,0.358686,
2002-05-25, 02:45:00,VALID,919.088,VALID,0,VALID,98.5761,VALID,-0.0339617,VALID,19.7442,VALID,75,VALID,0.500781,
2002-05-25, 02:46:00,VALID,919.089,VALID,0,VALID,98.5697,VALID,-0.0849042,VALID,19.7544,VALID,73,VALID,0.500473,
2002-05-25, 02:47:00,VALID,919.087,VALID,0,VALID,98.5544,VALID,-0.0509425,VALID,19.7579,VALID,66,VALID,0.627232,
2002-05-25, 02:48:00,VALID,919.073,VALID,0,VALID,98.5125,VALID,-0.0169808,VALID,19.7512,VALID,68,VALID,0.696484,
2002-05-25, 02:49:00,VALID,919.068,VALID,0,VALID,98.4553,VALID,-0.0679233,VALID,19.7512,VALID,67,VALID,0.779688,
2002-05-25, 02:50:00,VALID,919.066,VALID,0,VALID,98.4349,VALID,-0.0679233,VALID,19.7348,VALID,72,VALID,0.544118,
2002-05-25, 02:51:00,VALID,919.057,VALID,0,VALID,98.4209,VALID,-0.0339617,VALID,19.7353,VALID,87,VALID,0.644336,
2002-05-25, 02:52:00,VALID,919.044,VALID,0,VALID,98.4031,VALID,-0.0679233,VALID,19.7223,VALID,92,VALID,0.594697,
2002-05-25, 02:53:00,VALID,919.036,VALID,0,VALID,98.3904,VALID,-0.0509425,VALID,19.7293,VALID,99,VALID,0.47433,
2002-05-25, 02:54:00,VALID,919.013,VALID,0,VALID,98.3535,VALID,0.0169808,VALID,19.7345,VALID,100,VALID,0.286328,
2002-05-25, 02:55:00,VALID,918.993,VALID,0,VALID,98.337,VALID,0.0169808,VALID,19.7266,VALID,100,VALID,0.374107,
2002-05-25, 02:56:00,VALID,918.979,VALID,0,VALID,98.2632,VALID,0.0339617,VALID,19.737,VALID,99,VALID,0.429688,
2002-05-25, 02:57:00,VALID,918.973,VALID,0,VALID,98.2365,VALID,0.0679233,VALID,19.7469,VALID,94,VALID,0.502539,
2002-05-25, 02:58:00,VALID,918.965,VALID,0,VALID,98.1971,VALID,0.0509425,VALID,19.7469,VALID,94,VALID,0.662642,
2002-05-25, 02:59:00,VALID,918.955,VALID,0,VALID,98.1755,VALID,0.0679233,VALID,19.7464,VALID,94,VALID,0.589286,
2002-05-25, 03:00:00,VALID,918.969,VALID,0,VALID,98.1717,VALID,0.0849042,VALID,19.7467,VALID,94,VALID,0.43457,
2002-05-25, 03:01:00,VALID,918.954,VALID,0,VALID,98.1857,VALID,0.0509425,VALID,19.7564,VALID,94,VALID,0.371652,
2002-05-25, 03:02:00,VALID,918.951,VALID,0,VALID,98.2124,VALID,0.0679233,VALID,19.7499,VALID,94,VALID,0.418428,
2002-05-25, 03:03:00,VALID,918.952,VALID,0,VALID,98.2454,VALID,0.0849042,VALID,19.743,VALID,93,VALID,0.437305,
2002-05-25, 03:04:00,VALID,918.946,VALID,0,VALID,98.2048,VALID,0.0679233,VALID,19.7499,VALID,93,VALID,0.618371,
2002-05-25, 03:05:00,VALID,918.951,VALID,0,VALID,98.206,VALID,0.0339617,VALID,19.7435,VALID,91,VALID,0.704018,
2002-05-25, 03:06:00,VALID,918.95,VALID,0,VALID,98.248,VALID,0.0339617,VALID,19.737,VALID,85,VALID,0.570898,
2002-05-25, 03:07:00,VALID,918.953,VALID,0,VALID,98.2836,VALID,0.0849042,VALID,19.7305,VALID,96,VALID,0.661607,
2002-05-25, 03:08:00,VALID,918.93,VALID,0,VALID,98.3154,VALID,0.0339617,VALID,19.7273,VALID,102,VALID,0.471278,
2002-05-25, 03:09:00,VALID,918.936,VALID,0,VALID,98.3548,VALID,-0.0169808,VALID,19.7382,VALID,102,VALID,0.40332,
2002-05-25, 03:10:00,VALID,918.916,VALID,0,VALID,98.3955,VALID,-0.0679233,VALID,19.7358,VALID,100,VALID,0.525331,
2002-05-25, 03:11:00,VALID,918.916,VALID,0,VALID,98.3612,VALID,-0.0849042,VALID,19.7256,VALID,84,VALID,0.597768,
2002-05-25, 03:12:00,VALID,918.904,VALID,0,VALID,98.3116,VALID,-0.0509425,VALID,19.7258,VALID,88,VALID,0.627344,
2002-05-25, 03:13:00,VALID,918.888,VALID,0,VALID,98.3077,VALID,-0.0849042,VALID,19.7097,VALID,87,VALID,0.565402,
2002-05-25, 03:14:00,VALID,918.888,VALID,0,VALID,98.2963,VALID,-0.0679233,VALID,19.7064,VALID,88,VALID,0.316866,
2002-05-25, 03:15:00,VALID,918.879,VALID,0,VALID,98.3154,VALID,-0.0679233,VALID,19.6893,VALID,117,VALID,0.524219,
2002-05-25, 03:16:00,VALID,918.873,VALID,0,VALID,98.2963,VALID,-0.0169808,VALID,19.699,VALID,131,VALID,0.721828,
2002-05-25, 03:17:00,VALID,918.868,VALID,0,VALID,98.2861,VALID,-0.0169808,VALID,19.7092,VALID,146,VALID,0.584152,
2002-05-25, 03:18:00,VALID,918.876,VALID,0,VALID,98.3128,VALID,-0.0509425,VALID,19.7288,VALID,142,VALID,0.736133,
2002-05-25, 03:19:00,VALID,918.853,VALID,0,VALID,98.295,VALID,-0.0169808,VALID,19.7417,VALID,147,VALID,0.707143,
2002-05-25, 03:20:00,VALID,918.856,VALID,0,VALID,98.2887,VALID,-0.101885,VALID,19.7576,VALID,146,VALID,0.724035,
2002-05-25, 03:21:00,VALID,918.857,VALID,0,VALID,98.276,VALID,-0.0339617,VALID,19.7743,VALID,155,VALID,0.837305,
2002-05-25, 03:22:00,VALID,918.859,VALID,0,VALID,98.3039,VALID,-0.0679233,VALID,19.784,VALID,162,VALID,0.705729,
2002-05-25, 03:23:00,VALID,918.85,VALID,0,VALID,98.3548,VALID,-0.0679233,VALID,19.8066,VALID,149,VALID,0.933929,
2002-05-25, 03:24:00,VALID,918.85,VALID,0,VALID,98.3332,VALID,-0.0509425,VALID,19.8063,VALID,155,VALID,1.05957,
2002-05-25, 03:25:00,VALID,918.839,VALID,0,VALID,98.2467,VALID,0,VALID,19.7954,VALID,151,VALID,0.949107,
2002-05-25, 03:26:00,VALID,918.842,VALID,0,VALID,98.3027,VALID,0,VALID,19.7827,VALID,157,VALID,0.561811,
2002-05-25, 03:27:00,VALID,918.831,VALID,0,VALID,98.3344,VALID,0.0169808,VALID,19.7755,VALID,151,VALID,0.54043,
2002-05-25, 03:28:00,VALID,918.826,VALID,0,VALID,98.3599,VALID,0.0169808,VALID,19.7887,VALID,148,VALID,0.490767,
2002-05-25, 03:29:00,VALID,918.829,VALID,0,VALID,98.3853,VALID,0,VALID,19.7986,VALID,146,VALID,0.496429,
2002-05-25, 03:30:00,VALID,918.817,VALID,0,VALID,98.4069,VALID,0.0169808,VALID,19.7951,VALID,158,VALID,0.312305,
2002-05-25, 03:31:00,VALID,918.808,VALID,0,VALID,98.4006,VALID,0,VALID,19.8018,VALID,132,VALID,0.568527,
2002-05-25, 03:32:00,VALID,918.804,VALID,0,VALID,98.4235,VALID,0,VALID,19.7919,VALID,151,VALID,0.73966,